Content
SEND FEEDBACK

Daily
Averages
Monthly
Summary
Canada

QUEBEC CITY, QUEBEC


Home > North America > Canada > Quebec
Elevation: 239 feet     Latitude: 46 48N     Longitude: 071 23W

WEATHER
 
SELECT A DAY
Number of Records: 192,457;   Date Range: 6/30/96 - 8/20/14
 
SHARE

PRINT THIS DATA

[ ← Previous Day ]
WEATHER ALMANAC - MARCH 12, 2013
[ Next Day → ]
[ °C ]   °F
Weather ElementAverageHighLow
Temperature38.8 °F41 °F (2:00 am)35.6 °F (7:00 am)
Dewpoint24.3 °F41 °F (6:00 pm) (7:00 pm)
Humidity93.2 %100 % (7:00 am)65 % (2:00 am)
Wind Speed7.2 mph12.7 mph (11:00 pm)
Weather ElementAverage
Visibility3 mi
Wind Direction (490 °)

Weather ElementTotal
Precipitation---
Heating Degree Days26.7 (Base 65)
Averaged from 47 records on March 12, 2013
WEATHER CONDITIONS BREAKOUT
WIND DIRECTION BREAKOUT
WEATHER BY HOUR - MARCH 12, 2013
[ °C ]   °F
Local TimeTemperatureDewpointHumidityBarometerVisibilityWind DirectionWind SpeedGust SpeedPrecipitationEventsConditions
1:00 AM39.2 °F30.2 °F70 %29.92 in15.0 miNNE (30°)5.8 mphOvercast
2:00 AM36.0 °F31.0 °F76 %29.92 inNNW (330°)1.2 mph
2:00 AM41.0 °F30.2 °F65 %29.92 in15.0 miNorth (10°)4.6 mphOvercast
3:00 AM41.0 °F30.2 °F65 %29.93 in15.0 miNorth (360°)4.6 mphOvercast
4:00 AM39.2 °F32.0 °F75 %29.91 in15.0 miENE (60°)5.8 mphRainLight Rain
5:00 AM37.4 °F33.8 °F87 %29.91 in10.0 miNorth (10°)3.5 mphRainLight Rain
5:00 AM36.0 °F34.0 °F87 %29.90 inNorth (10°)1.2 mph
6:00 AM37.4 °F35.6 °F93 %29.91 in6.0 miNorth (10°)5.8 mphRainLight Rain
7:00 AM35.6 °F35.6 °F100 %29.90 in3.0 miENE (60°)6.9 mphRainLight Rain
8:00 AM37.0 °F36.0 °F97 %29.90 inNNE (30°)2.3 mph
8:00 AM37.4 °F37.4 °F100 %29.92 in2.5 miNNE (30°)4.6 mphRainLight Rain
8:27 AM37.4 °F0.0 °F1.5 miEast (80°)4.6 mphRainLight Rain
8:47 AM37.4 °F0.0 °F1.2 miENE (60°)10.4 mphRainLight Rain
9:00 AM37.4 °F37.4 °F100 %29.91 in1.2 miENE (60°)10.4 mphRainLight Rain
9:33 AM37.4 °F0.0 °F1.5 miENE (60°)10.4 mphRainLight Rain
10:00 AM37.4 °F37.4 °F100 %29.90 in3.0 miENE (60°)9.2 mphRainLight Rain
11:00 AM39.2 °F37.4 °F93 %29.88 in5.0 miENE (70°)10.4 mphRainLight Rain
11:00 AM39.0 °F38.0 °F96 %29.87 inENE (70°)6.9 mph
12:00 PM39.2 °F39.2 °F100 %29.88 in5.0 miENE (60°)10.4 mphRainLight Rain
12:47 PM39.2 °F0.0 °F1.8 miENE (60°)9.2 mphRainLight Rain
1:00 PM39.2 °F39.2 °F100 %29.86 in1.0 miENE (60°)9.2 mphRainLight Rain
2:00 PM40.0 °F39.0 °F96 %29.83 inENE (70°)5.8 mph
2:00 PM39.2 °F39.2 °F100 %29.85 in0.8 miENE (60°)9.2 mphRainLight Rain
2:13 PM39.2 °F0.0 °F0.0 mi9.2 (2013°)0.00 inLight Rain60
2:16 PM39.2 °F0.0 °F0.0 mi9.2 (2013°)0.00 inLight Rain60
2:35 PM39.2 °F0.0 °F0.0 mi10.4 (2013°)0.00 inLight Rain60
2:39 PM39.2 °F0.0 °F0.0 mi10.4 (2013°)0.00 inLight Rain60
3:00 PM39.2 °F39.2 °F100 %29.82 in0.5 miENE (60°)9.2 mphFog-RainLight Rain
3:35 PM39.2 °F0.0 °F0.0 mi10.4 (2013°)0.00 inLight Rain60
3:41 PM39.2 °F0.0 °F0.0 mi10.4 (2013°)0.00 inLight Rain60
4:00 PM39.2 °F39.2 °F100 %29.81 in0.5 miENE (60°)10.4 mphFog-RainLight Rain
5:00 PM40.0 °F39.0 °F97 %29.78 inEast (80°)4.6 mph
5:00 PM39.2 °F39.2 °F100 %29.79 in0.5 miENE (70°)9.2 mphFog-RainLight Rain
5:45 PM39.2 °F0.0 °F0.0 mi9.2 (2013°)0.00 inLight Rain60
6:00 PM41.0 °F41.0 °F100 %29.78 in1.0 miNE (50°)8.1 mphRainLight Rain
6:36 PM41.0 °F0.0 °F2.0 miNE (50°)8.1 mphRainLight Rain
7:00 PM39.2 °F39.2 °F100 %29.78 in1.8 miNE (50°)9.2 mphRainLight Rain
8:00 PM40.0 °F40.0 °F99 %29.75 inEast (80°)4.6 mph
8:00 PM39.2 °F39.2 °F100 %29.77 in2.0 miENE (60°)9.2 mphRainLight Rain
8:33 PM39.2 °F0.0 °F3.0 miENE (60°)9.2 mphRainLight Rain
9:00 PM39.2 °F39.2 °F100 %29.74 in2.0 miENE (60°)8.1 mphRainLight Rain
9:15 PM39.2 °F0.0 °F0.0 mi6.9 (2013°)0.00 inLight Rain60
9:38 PM39.2 °F0.0 °F0.0 mi5.8 (2013°)0.00 inLight Rain70
10:00 PM41.0 °F39.2 °F93 %29.73 in0.8 miENE (60°)8.1 mphRainLight Rain
10:45 PM39.2 °F0.0 °F0.0 mi4.6 (2013°)0.00 inLight Rain200
11:00 PM39.0 °F39.0 °F100 %29.71 inSW (220°)4.6 mph
11:00 PM37.4 °F37.4 °F100 %29.72 in0.8 miSW (230°)12.7 mphRainLight Rain
Hourly data recorded from CYQB, located miles away from Quebec City, Quebec







STORIES FROM OUR PARTNERS